Time,TemperatureF,DewpointF,PressureIn,WindDirection,WindDirectionDegrees,WindSpeedMPH,WindSpeedGustMPH,Humidity,HourlyPrecipIn,Conditions,Clouds,dailyrainin,SoftwareType,DateUTC
2013-02-19 00:02:00,32.9,28.0,29.73,WNW,292,13.8,14.1,82,0.02,RA,,0.00,WeatherDisplay:10.37,2013-02-19 06:02:00,
2013-02-19 00:07:00,32.4,27.2,29.73,SW,225,7.2,7.2,81,0.02,RA,,0.00,WeatherDisplay:10.37,2013-02-19 06:07:00,
2013-02-19 00:12:00,32.4,27.2,29.74,West,270,1.2,1.2,81,0.02,CLR,,0.00,WeatherDisplay:10.37,2013-02-19 06:12:00,
2013-02-19 00:17:00,32.0,26.8,29.74,SW,225,0.0,0.0,81,0.02,CLR,,0.00,WeatherDisplay:10.37,2013-02-19 06:17:00,
2013-02-19 00:22:00,31.6,26.2,29.75,WSW,248,16.1,16.1,80,0.02,CLR,,0.00,WeatherDisplay:10.37,2013-02-19 06:22:00,
2013-02-19 00:28:00,31.3,25.5,29.75,West,270,0.0,0.0,79,0.02,CLR,,0.00,WeatherDisplay:10.37,2013-02-19 06:28:00,
2013-02-19 00:33:00,31.1,25.0,29.75,West,270,13.8,13.8,78,0.02,CLR,,0.00,WeatherDisplay:10.37,2013-02-19 06:33:00,
2013-02-19 00:38:00,30.7,24.7,29.75,WNW,292,0.0,0.0,78,0.02,CLR,,0.00,WeatherDisplay:10.37,2013-02-19 06:38:00,
2013-02-19 00:43:00,30.4,24.0,29.76,West,270,0.0,0.0,77,0.02,CLR,,0.00,WeatherDisplay:10.37,2013-02-19 06:43:00,
2013-02-19 00:48:00,29.8,23.2,29.77,WSW,248,1.3,1.3,76,0.00,CLR,,0.00,WeatherDisplay:10.37,2013-02-19 06:48:00,
2013-02-19 00:53:00,29.7,23.0,29.77,SW,225,0.0,0.0,76,0.00,CLR,,0.00,WeatherDisplay:10.37,2013-02-19 06:53:00,
2013-02-19 00:58:00,29.7,23.0,29.77,WSW,248,0.0,0.0,76,0.00,CLR,,0.00,WeatherDisplay:10.37,2013-02-19 06:58:00,
2013-02-19 01:03:00,28.6,21.7,29.77,West,270,0.0,0.0,75,0.00,CLR,,0.00,WeatherDisplay:10.37,2013-02-19 07:03:00,
2013-02-19 01:08:00,28.6,21.7,29.78,WSW,248,0.0,0.0,75,0.00,CLR,,0.00,WeatherDisplay:10.37,2013-02-19 07:08:00,
2013-02-19 01:13:00,27.7,20.8,29.78,WSW,248,0.0,0.0,75,0.00,CLR,,0.00,WeatherDisplay:10.37,2013-02-19 07:13:00,
2013-02-19 01:18:00,27.3,20.4,29.78,WSW,248,0.0,0.0,75,0.00,CLR,,0.00,WeatherDisplay:10.37,2013-02-19 07:18:00,
2013-02-19 01:23:00,27.1,20.3,29.78,SSW,202,6.9,0.0,75,0.00,CLR,,0.00,WeatherDisplay:10.37,2013-02-19 07:23:00,
2013-02-19 01:28:00,27.1,20.3,29.79,SSW,202,6.9,0.0,75,0.00,CLR,,0.00,WeatherDisplay:10.37,2013-02-19 07:28:00,
2013-02-19 01:33:00,26.2,18.1,29.79,SW,225,0.0,6.2,71,0.00,CLR,,0.00,WeatherDisplay:10.37,2013-02-19 07:33:00,
2013-02-19 01:38:00,25.7,17.6,29.79,SW,225,0.0,6.2,71,0.00,CLR,,0.00,WeatherDisplay:10.37,2013-02-19 07:38:00,
2013-02-19 01:44:00,25.7,17.3,29.80,WSW,248,0.0,0.4,70,0.00,CLR,,0.00,WeatherDisplay:10.37,2013-02-19 07:44:00,
2013-02-19 01:49:00,25.7,17.3,29.80,WSW,248,0.0,0.4,70,0.00,CLR,,0.00,WeatherDisplay:10.37,2013-02-19 07:49:00,
2013-02-19 01:54:00,25.7,17.3,29.80,WSW,248,0.0,0.4,70,0.00,CLR,,0.00,WeatherDisplay:10.37,2013-02-19 07:54:00,
2013-02-19 01:59:00,25.3,17.2,29.80,WNW,292,0.0,0.0,71,0.00,CLR,,0.00,WeatherDisplay:10.37,2013-02-19 07:59:00,
2013-02-19 02:04:00,25.0,16.9,29.80,SW,225,0.0,0.0,71,0.00,CLR,,0.00,WeatherDisplay:10.37,2013-02-19 08:04:00,
2013-02-19 02:09:00,25.0,16.9,29.81,West,270,8.1,0.0,71,0.00,CLR,,0.00,WeatherDisplay:10.37,2013-02-19 08:09:00,
2013-02-19 02:14:00,25.0,16.6,29.81,West,270,8.1,0.0,70,0.00,CLR,,0.00,WeatherDisplay:10.37,2013-02-19 08:14:00,
2013-02-19 02:19:00,23.9,15.5,29.81,WSW,248,15.0,15.2,70,0.00,CLR,,0.00,WeatherDisplay:10.37,2013-02-19 08:19:00,
2013-02-19 02:24:00,23.7,15.0,29.83,West,270,0.0,0.0,69,0.00,CLR,,0.00,WeatherDisplay:10.37,2013-02-19 08:24:00,
2013-02-19 02:29:00,23.5,14.5,29.83,SW,225,0.0,0.0,68,0.00,CLR,,0.00,WeatherDisplay:10.37,2013-02-19 08:29:00,
2013-02-19 02:34:00,23.2,14.2,29.83,SW,225,0.0,0.0,68,0.00,CLR,,0.00,WeatherDisplay:10.37,2013-02-19 08:34:00,
2013-02-19 02:39:00,23.0,14.0,29.83,SW,225,4.6,4.6,68,0.00,CLR,,0.00,WeatherDisplay:10.37,2013-02-19 08:39:00,
2013-02-19 02:44:00,22.8,13.8,29.84,WSW,248,0.0,0.0,68,0.00,CLR,,0.00,WeatherDisplay:10.37,2013-02-19 08:44:00,
2013-02-19 02:49:00,22.6,13.7,29.84,SSW,202,9.2,9.2,68,0.00,CLR,,0.00,WeatherDisplay:10.37,2013-02-19 08:49:00,
2013-02-19 02:54:00,22.6,13.7,29.85,WSW,248,0.0,0.0,68,0.00,CLR,,0.00,WeatherDisplay:10.37,2013-02-19 08:54:00,
2013-02-19 02:59:00,22.5,13.2,29.85,SSW,202,0.0,0.0,67,0.00,CLR,,0.00,WeatherDisplay:10.37,2013-02-19 08:59:00,
2013-02-19 03:04:00,21.9,12.3,29.86,SSW,202,16.1,16.1,66,0.00,CLR,,0.00,WeatherDisplay:10.37,2013-02-19 09:04:00,
2013-02-19 03:09:00,21.7,12.1,29.85,WSW,248,0.0,0.0,66,0.00,CLR,,0.00,WeatherDisplay:10.37,2013-02-19 09:09:00,
2013-02-19 03:14:00,21.4,11.8,29.85,WSW,248,0.0,0.0,66,0.00,CLR,,0.00,WeatherDisplay:10.37,2013-02-19 09:14:00,
2013-02-19 03:19:00,21.2,11.6,29.85,SW,225,15.0,15.0,66,0.00,CLR,,0.00,WeatherDisplay:10.37,2013-02-19 09:19:00,
2013-02-19 03:24:00,21.0,11.1,29.85,WSW,248,0.0,0.0,65,0.00,CLR,,0.00,WeatherDisplay:10.37,2013-02-19 09:24:00,
2013-02-19 03:29:00,20.8,10.9,29.86,SW,225,0.0,0.0,65,0.00,CLR,,0.00,WeatherDisplay:10.37,2013-02-19 09:29:00,
2013-02-19 03:34:00,21.0,11.1,29.86,West,270,13.8,13.8,65,0.00,CLR,,0.00,WeatherDisplay:10.37,2013-02-19 09:34:00,
2013-02-19 03:39:00,21.0,11.1,29.86,West,270,14.3,14.8,65,0.00,CLR,,0.00,WeatherDisplay:10.37,2013-02-19 09:39:00,
2013-02-19 03:44:00,20.8,10.9,29.86,West,270,16.1,16.1,65,0.00,CLR,,0.00,WeatherDisplay:10.37,2013-02-19 09:44:00,
2013-02-19 03:49:00,20.8,10.9,29.86,WSW,248,0.0,9.6,65,0.00,CLR,,0.00,WeatherDisplay:10.37,2013-02-19 09:49:00,
2013-02-19 03:54:00,20.8,10.6,29.86,WNW,292,0.0,0.0,64,0.00,CLR,,0.00,WeatherDisplay:10.37,2013-02-19 09:54:00,
2013-02-19 03:59:00,20.8,10.6,29.86,West,270,0.0,0.0,64,0.00,CLR,,0.00,WeatherDisplay:10.37,2013-02-19 09:59:00,
2013-02-19 04:04:00,20.3,10.1,29.86,WSW,248,0.0,0.0,64,0.00,CLR,,0.00,WeatherDisplay:10.37,2013-02-19 10:04:00,
2013-02-19 04:09:00,20.3,10.1,29.86,WSW,248,0.0,0.0,64,0.00,CLR,,0.00,WeatherDisplay:10.37,2013-02-19 10:09:00,
2013-02-19 04:14:00,19.6,9.0,29.87,WSW,248,18.5,18.5,63,0.00,CLR,,0.00,WeatherDisplay:10.37,2013-02-19 10:14:00,
2013-02-19 04:19:00,19.6,9.0,29.87,SW,225,13.8,13.8,63,0.00,CLR,,0.00,WeatherDisplay:10.37,2013-02-19 10:19:00,
2013-02-19 04:24:00,19.6,9.0,29.87,WSW,248,8.1,8.1,63,0.00,CLR,,0.00,WeatherDisplay:10.37,2013-02-19 10:24:00,
2013-02-19 04:29:00,19.0,8.1,29.88,SSW,202,11.5,11.5,62,0.00,CLR,,0.00,WeatherDisplay:10.37,2013-02-19 10:29:00,
2013-02-19 04:34:00,19.0,8.1,29.88,WSW,248,15.4,15.4,62,0.00,CLR,,0.00,WeatherDisplay:10.37,2013-02-19 10:34:00,
2013-02-19 04:39:00,19.0,8.1,29.88,SW,225,8.5,8.5,62,0.00,CLR,,0.00,WeatherDisplay:10.37,2013-02-19 10:39:00,
2013-02-19 04:44:00,19.0,8.1,29.88,SW,225,20.1,20.1,62,0.00,CLR,,0.00,WeatherDisplay:10.37,2013-02-19 10:44:00,
2013-02-19 04:49:00,18.9,8.0,29.88,WSW,248,6.9,6.9,62,0.00,CLR,,0.00,WeatherDisplay:10.37,2013-02-19 10:49:00,
2013-02-19 04:54:00,18.9,7.6,29.88,West,270,1.2,1.6,61,0.00,CLR,,0.00,WeatherDisplay:10.37,2013-02-19 10:54:00,
2013-02-19 04:59:00,18.7,7.4,29.89,WSW,248,13.8,13.8,61,0.00,CLR,,0.00,WeatherDisplay:10.37,2013-02-19 10:59:00,
2013-02-19 05:04:00,18.5,7.3,29.89,WSW,248,11.6,11.6,61,0.00,CLR,,0.00,WeatherDisplay:10.37,2013-02-19 11:04:00,
2013-02-19 05:09:00,18.5,7.3,29.89,SW,225,0.0,0.0,61,0.00,CLR,,0.00,WeatherDisplay:10.37,2013-02-19 11:09:00,
2013-02-19 05:14:00,18.3,7.1,29.89,WSW,248,11.5,11.5,61,0.00,CLR,,0.00,WeatherDisplay:10.37,2013-02-19 11:14:00,
2013-02-19 05:19:00,18.1,6.9,29.89,SW,225,11.5,11.5,61,0.00,CLR,,0.00,WeatherDisplay:10.37,2013-02-19 11:19:00,
2013-02-19 05:24:00,18.0,6.8,29.89,SSW,202,10.4,10.5,61,0.00,CLR,,0.00,WeatherDisplay:10.37,2013-02-19 11:24:00,
2013-02-19 05:29:00,17.8,6.6,29.90,WNW,292,12.7,12.7,61,0.00,CLR,,0.00,WeatherDisplay:10.37,2013-02-19 11:29:00,
2013-02-19 05:34:00,18.0,6.8,29.90,SSW,202,9.2,9.2,61,0.00,CLR,,0.00,WeatherDisplay:10.37,2013-02-19 11:34:00,
2013-02-19 05:39:00,18.0,6.4,29.90,West,270,11.5,11.5,60,0.00,CLR,,0.00,WeatherDisplay:10.37,2013-02-19 11:39:00,
2013-02-19 05:44:00,17.8,6.2,29.90,WSW,248,10.4,10.4,60,0.00,CLR,,0.00,WeatherDisplay:10.37,2013-02-19 11:44:00,
2013-02-19 05:49:00,17.8,6.2,29.91,West,270,0.0,0.0,60,0.00,CLR,,0.00,WeatherDisplay:10.37,2013-02-19 11:49:00,
2013-02-19 05:54:00,17.8,6.2,29.91,WSW,248,17.3,17.3,60,0.00,CLR,,0.00,WeatherDisplay:10.37,2013-02-19 11:54:00,
2013-02-19 05:59:00,17.6,6.1,29.91,West,270,9.2,17.2,60,0.00,CLR,,0.00,WeatherDisplay:10.37,2013-02-19 11:59:00,
2013-02-19 06:04:00,17.6,6.1,29.91,WSW,248,15.0,15.0,60,0.00,CLR,,0.00,WeatherDisplay:10.37,2013-02-19 12:04:00,
2013-02-19 06:09:00,16.9,4.6,29.92,South,180,10.4,10.4,58,0.00,CLR,,0.00,WeatherDisplay:10.37,2013-02-19 12:09:00,
2013-02-19 06:14:00,16.7,4.1,29.92,West,270,5.8,0.0,57,0.00,CLR,,0.00,WeatherDisplay:10.37,2013-02-19 12:14:00,
2013-02-19 06:19:00,16.5,4.3,29.92,SW,225,5.8,5.8,58,0.00,CLR,,0.00,WeatherDisplay:10.37,2013-02-19 12:19:00,
2013-02-19 06:24:00,16.2,4.0,29.92,West,270,13.8,13.8,58,0.00,CLR,,0.00,WeatherDisplay:10.37,2013-02-19 12:24:00,
2013-02-19 06:29:00,16.2,4.0,29.92,SSW,202,9.6,9.6,58,0.00,CLR,,0.00,WeatherDisplay:10.37,2013-02-19 12:29:00,
2013-02-19 06:34:00,16.2,3.6,29.92,SW,225,17.3,17.3,57,0.00,CLR,,0.00,WeatherDisplay:10.37,2013-02-19 12:34:00,
2013-02-19 06:39:00,16.2,3.2,29.93,SW,225,0.0,0.0,56,0.00,CLR,,0.00,WeatherDisplay:10.37,2013-02-19 12:39:00,
2013-02-19 06:44:00,15.6,2.3,29.93,West,270,13.8,13.8,55,0.00,CLR,,0.00,WeatherDisplay:10.37,2013-02-19 12:44:00,
2013-02-19 06:49:00,15.4,2.1,29.93,West,270,11.5,11.5,55,0.00,CLR,,0.00,WeatherDisplay:10.37,2013-02-19 12:49:00,
2013-02-19 06:54:00,15.4,2.1,29.93,SW,225,12.7,13.2,55,0.00,CLR,,0.00,WeatherDisplay:10.37,2013-02-19 12:54:00,
2013-02-19 06:59:00,15.3,2.0,29.94,South,180,8.1,8.1,55,0.00,CLR,,0.00,WeatherDisplay:10.37,2013-02-19 12:59:00,
2013-02-19 07:04:00,15.3,2.0,29.94,WSW,248,6.3,6.3,55,0.00,CLR,,0.00,WeatherDisplay:10.37,2013-02-19 13:04:00,
2013-02-19 07:09:00,15.3,2.0,29.94,WSW,248,0.0,0.0,55,0.00,CLR,,0.00,WeatherDisplay:10.37,2013-02-19 13:09:00,
2013-02-19 07:14:00,15.3,2.0,29.94,WSW,248,17.7,17.7,55,0.00,CLR,,0.00,WeatherDisplay:10.37,2013-02-19 13:14:00,
2013-02-19 07:19:00,15.3,1.6,29.95,West,270,0.0,0.0,54,0.00,CLR,,0.00,WeatherDisplay:10.37,2013-02-19 13:19:00,
2013-02-19 07:24:00,15.3,2.0,29.95,SSW,202,11.5,11.5,55,0.00,CLR,,0.00,WeatherDisplay:10.37,2013-02-19 13:24:00,
2013-02-19 07:29:00,15.3,2.0,29.96,West,270,0.0,0.0,55,0.00,CLR,,0.00,WeatherDisplay:10.37,2013-02-19 13:29:00,
2013-02-19 07:34:00,15.3,2.0,29.96,WSW,248,0.0,0.0,55,0.00,CLR,,0.00,WeatherDisplay:10.37,2013-02-19 13:34:00,
2013-02-19 07:39:00,15.3,2.3,29.96,SSW,202,0.0,0.0,56,0.00,CLR,,0.00,WeatherDisplay:10.37,2013-02-19 13:39:00,
2013-02-19 07:44:00,15.1,2.2,29.96,SW,225,5.8,5.8,56,0.00,CLR,,0.00,WeatherDisplay:10.37,2013-02-19 13:44:00,
2013-02-19 07:49:00,15.1,2.2,29.97,SW,225,9.2,9.6,56,0.00,CLR,,0.00,WeatherDisplay:10.37,2013-02-19 13:49:00,
2013-02-19 07:54:00,15.1,1.8,29.97,WSW,248,21.9,21.9,55,0.00,CLR,,0.00,WeatherDisplay:10.37,2013-02-19 13:54:00,
2013-02-19 07:59:00,14.9,0.8,29.98,WSW,248,8.1,8.1,53,0.00,CLR,,0.00,WeatherDisplay:10.37,2013-02-19 13:59:00,
2013-02-19 08:04:00,14.9,0.8,29.98,WSW,248,6.9,6.9,53,0.00,CLR,,0.00,WeatherDisplay:10.37,2013-02-19 14:04:00,
2013-02-19 08:09:00,14.7,0.7,29.98,WSW,248,16.1,16.1,53,0.00,CLR,,0.00,WeatherDisplay:10.37,2013-02-19 14:09:00,
2013-02-19 08:14:00,14.7,0.7,29.98,SW,225,16.1,16.1,53,0.00,CLR,,0.00,WeatherDisplay:10.37,2013-02-19 14:14:00,
2013-02-19 08:19:00,14.7,0.3,29.99,WSW,248,0.0,11.1,52,0.00,CLR,,0.00,WeatherDisplay:10.37,2013-02-19 14:19:00,
2013-02-19 08:24:00,14.7,0.3,29.98,SW,225,11.5,11.5,52,0.00,CLR,,0.00,WeatherDisplay:10.37,2013-02-19 14:24:00,
2013-02-19 08:29:00,14.7,0.3,29.99,WSW,248,8.1,0.0,52,0.00,CLR,,0.00,WeatherDisplay:10.37,2013-02-19 14:29:00,
2013-02-19 08:34:00,14.7,0.3,29.99,SSW,202,12.7,12.7,52,0.00,CLR,,0.00,WeatherDisplay:10.37,2013-02-19 14:34:00,
2013-02-19 08:39:00,14.5,0.1,29.99,SSW,202,12.7,13.2,52,0.00,CLR,,0.00,WeatherDisplay:10.37,2013-02-19 14:39:00,
2013-02-19 08:44:00,14.2,-0.7,30.00,SW,225,13.8,13.8,51,0.00,CLR,,0.00,WeatherDisplay:10.37,2013-02-19 14:44:00,
2013-02-19 08:49:00,14.2,-0.7,30.00,WSW,248,5.8,8.3,51,0.00,CLR,,0.00,WeatherDisplay:10.37,2013-02-19 14:49:00,
2013-02-19 08:54:00,13.6,-1.2,29.99,WSW,248,5.8,7.2,51,0.00,CLR,,0.00,WeatherDisplay:10.37,2013-02-19 14:54:00,
2013-02-19 08:59:00,13.8,-1.0,29.99,West,270,10.4,10.4,51,0.00,CLR,,0.00,WeatherDisplay:10.37,2013-02-19 14:59:00,
2013-02-19 09:04:00,14.2,-0.7,30.00,West,270,9.2,9.2,51,0.00,CLR,,0.00,WeatherDisplay:10.37,2013-02-19 15:04:00,
2013-02-19 09:09:00,14.2,-0.3,30.00,South,180,13.4,13.4,52,0.00,CLR,,0.00,WeatherDisplay:10.37,2013-02-19 15:09:00,
2013-02-19 09:14:00,14.2,-0.3,30.01,SW,225,12.7,12.7,52,0.00,CLR,,0.00,WeatherDisplay:10.37,2013-02-19 15:14:00,
2013-02-19 09:19:00,14.2,-0.3,30.01,SW,225,16.1,16.1,52,0.00,CLR,,0.00,WeatherDisplay:10.37,2013-02-19 15:19:00,
2013-02-19 09:24:00,14.2,0.2,30.02,WNW,292,1.2,3.6,53,0.00,CLR,,0.00,WeatherDisplay:10.37,2013-02-19 15:24:00,
2013-02-19 09:29:00,14.2,0.2,30.02,SSW,202,19.6,19.6,53,0.00,CLR,,0.00,WeatherDisplay:10.37,2013-02-19 15:29:00,
2013-02-19 09:34:00,14.2,0.2,30.03,SSW,202,12.7,12.7,53,0.00,CLR,,0.00,WeatherDisplay:10.37,2013-02-19 15:34:00,
2013-02-19 09:39:00,14.2,-0.3,30.03,WSW,248,11.5,11.8,52,0.00,CLR,,0.00,WeatherDisplay:10.37,2013-02-19 15:39:00,
2013-02-19 09:44:00,14.4,-0.1,30.03,West,270,9.2,9.2,52,0.00,CLR,,0.00,WeatherDisplay:10.37,2013-02-19 15:44:00,
2013-02-19 09:49:00,14.2,-0.7,30.03,West,270,17.3,17.3,51,0.00,CLR,,0.00,WeatherDisplay:10.37,2013-02-19 15:49:00,
2013-02-19 09:54:00,14.4,-0.5,30.04,WSW,248,11.5,12.1,51,0.00,CLR,,0.00,WeatherDisplay:10.37,2013-02-19 15:54:00,
2013-02-19 09:59:00,14.4,-0.5,30.04,WSW,248,9.2,9.2,51,0.00,CLR,,0.00,WeatherDisplay:10.37,2013-02-19 15:59:00,
2013-02-19 10:04:00,14.7,-0.2,30.04,WSW,248,15.0,15.0,51,0.00,CLR,,0.00,WeatherDisplay:10.37,2013-02-19 16:04:00,
2013-02-19 10:09:00,14.9,-0.4,30.04,SW,225,0.0,0.0,50,0.00,CLR,,0.00,WeatherDisplay:10.37,2013-02-19 16:09:00,
2013-02-19 10:14:00,14.7,-1.0,30.04,SW,225,18.4,18.4,49,0.00,CLR,,0.00,WeatherDisplay:10.37,2013-02-19 16:14:00,
2013-02-19 10:19:00,14.9,-1.3,30.04,SW,225,17.3,17.3,48,0.00,CLR,,0.00,WeatherDisplay:10.37,2013-02-19 16:19:00,
2013-02-19 10:24:00,15.3,-1.0,30.04,WSW,248,15.0,15.0,48,0.00,CLR,,0.00,WeatherDisplay:10.37,2013-02-19 16:24:00,
2013-02-19 10:29:00,15.4,-1.2,30.04,WSW,248,13.8,13.8,47,0.00,CLR,,0.00,WeatherDisplay:10.37,2013-02-19 16:29:00,
2013-02-19 10:34:00,15.6,-0.6,30.04,WSW,248,8.3,8.3,48,0.00,CLR,,0.00,WeatherDisplay:10.37,2013-02-19 16:34:00,
2013-02-19 10:39:00,16.0,-0.3,30.05,SW,225,17.3,17.3,48,0.00,CLR,,0.00,WeatherDisplay:10.37,2013-02-19 16:39:00,
2013-02-19 10:44:00,16.0,-0.7,30.06,SW,225,0.0,0.0,47,0.00,CLR,,0.00,WeatherDisplay:10.37,2013-02-19 16:44:00,
2013-02-19 10:49:00,16.0,-1.7,30.05,West,270,17.3,17.3,45,0.00,CLR,,0.00,WeatherDisplay:10.37,2013-02-19 16:49:00,
2013-02-19 10:54:00,16.2,-1.5,30.06,WSW,248,16.1,16.2,45,0.00,CLR,,0.00,WeatherDisplay:10.37,2013-02-19 16:54:00,
2013-02-19 10:59:00,16.0,-2.1,30.05,West,270,17.3,17.3,44,0.00,CLR,,0.00,WeatherDisplay:10.37,2013-02-19 16:59:00,
2013-02-19 11:04:00,15.6,-2.5,30.05,SW,225,13.8,0.0,44,0.00,CLR,,0.00,WeatherDisplay:10.37,2013-02-19 17:04:00,
2013-02-19 11:09:00,16.0,-1.7,30.05,SW,225,19.6,19.9,45,0.00,CLR,,0.00,WeatherDisplay:10.37,2013-02-19 17:09:00,
2013-02-19 11:14:00,15.8,-1.4,30.06,SW,225,12.7,12.7,46,0.00,CLR,,0.00,WeatherDisplay:10.37,2013-02-19 17:14:00,
2013-02-19 11:19:00,15.6,-2.0,30.06,WNW,292,8.3,8.3,45,0.00,CLR,,0.00,WeatherDisplay:10.37,2013-02-19 17:19:00,
2013-02-19 11:24:00,15.6,-2.0,30.06,West,270,17.3,17.4,45,0.00,CLR,,0.00,WeatherDisplay:10.37,2013-02-19 17:24:00,
2013-02-19 11:29:00,15.4,-2.6,30.06,SSW,202,12.7,12.7,44,0.00,CLR,,0.00,WeatherDisplay:10.37,2013-02-19 17:29:00,
2013-02-19 11:34:00,15.4,-2.6,30.06,WSW,248,7.4,7.4,44,0.00,CLR,,0.00,WeatherDisplay:10.37,2013-02-19 17:34:00,
2013-02-19 11:39:00,15.6,-2.5,30.06,WSW,248,13.8,13.8,44,0.00,CLR,,0.00,WeatherDisplay:10.37,2013-02-19 17:39:00,
2013-02-19 11:44:00,15.3,-3.3,30.06,West,270,21.9,21.9,43,0.00,CLR,,0.00,WeatherDisplay:10.37,2013-02-19 17:44:00,
2013-02-19 11:49:00,15.4,-3.1,30.07,SW,225,20.7,20.7,43,0.00,CLR,,0.00,WeatherDisplay:10.37,2013-02-19 17:49:00,
2013-02-19 11:54:00,15.4,-2.6,30.07,SW,225,6.9,20.3,44,0.00,CLR,,0.00,WeatherDisplay:10.37,2013-02-19 17:54:00,
2013-02-19 11:59:00,15.4,-2.6,30.07,SW,225,6.9,20.3,44,0.00,CLR,,0.00,WeatherDisplay:10.37,2013-02-19 17:59:00,
2013-02-19 12:04:00,15.4,-3.1,30.07,SW,225,6.9,20.3,43,0.00,CLR,,0.00,WeatherDisplay:10.37,2013-02-19 18:04:00,
2013-02-19 12:09:00,15.4,-3.1,30.07,SW,225,6.9,20.3,43,0.00,CLR,,0.00,WeatherDisplay:10.37,2013-02-19 18:09:00,
2013-02-19 12:14:00,15.4,-3.1,30.07,SW,225,6.9,20.3,43,0.00,CLR,,0.00,WeatherDisplay:10.37,2013-02-19 18:14:00,
2013-02-19 12:19:00,15.4,-3.1,30.07,SW,225,6.9,20.3,43,0.00,CLR,,0.00,WeatherDisplay:10.37,2013-02-19 18:19:00,
2013-02-19 12:24:00,15.4,-3.1,30.07,SSW,202,10.4,10.4,43,0.00,CLR,,0.00,WeatherDisplay:10.37,2013-02-19 18:24:00,
2013-02-19 12:29:00,15.8,-3.3,30.08,WSW,248,0.0,0.0,42,0.00,CLR,,0.00,WeatherDisplay:10.37,2013-02-19 18:29:00,
2013-02-19 12:34:00,15.6,-3.4,30.08,SSW,202,0.0,0.0,42,0.00,CLR,,0.00,WeatherDisplay:10.37,2013-02-19 18:34:00,
2013-02-19 12:39:00,15.4,-3.6,30.09,WSW,248,16.1,0.0,42,0.00,CLR,,0.00,WeatherDisplay:10.37,2013-02-19 18:39:00,
2013-02-19 12:44:00,15.3,-3.8,30.10,West,270,13.8,13.8,42,0.00,CLR,,0.00,WeatherDisplay:10.37,2013-02-19 18:44:00,
2013-02-19 12:49:00,15.1,-3.4,30.10,SW,225,6.9,6.9,43,0.00,CLR,,0.00,WeatherDisplay:10.37,2013-02-19 18:49:00,
2013-02-19 12:54:00,15.3,-3.3,30.10,WSW,248,12.7,13.2,43,0.00,CLR,,0.00,WeatherDisplay:10.37,2013-02-19 18:54:00,
2013-02-19 12:59:00,15.3,-3.3,30.10,WNW,292,18.4,18.4,43,0.00,CLR,,0.00,WeatherDisplay:10.37,2013-02-19 18:59:00,
2013-02-19 13:04:00,15.1,-3.4,30.11,SW,225,6.9,6.9,43,0.00,CLR,,0.00,WeatherDisplay:10.37,2013-02-19 19:04:00,
2013-02-19 13:09:00,15.3,-3.3,30.11,WSW,248,12.7,12.7,43,0.00,CLR,,0.00,WeatherDisplay:10.37,2013-02-19 19:09:00,
2013-02-19 13:14:00,15.4,-2.6,30.11,WNW,292,9.2,9.3,44,0.00,CLR,,0.00,WeatherDisplay:10.37,2013-02-19 19:14:00,
2013-02-19 13:19:00,15.4,-3.1,30.11,WSW,248,8.1,8.1,43,0.00,CLR,,0.00,WeatherDisplay:10.37,2013-02-19 19:19:00,
2013-02-19 13:24:00,15.3,-3.3,30.11,WNW,292,5.8,0.0,43,0.00,CLR,,0.00,WeatherDisplay:10.37,2013-02-19 19:24:00,
2013-02-19 13:29:00,16.0,-2.1,30.11,SW,225,21.9,21.9,44,0.00,CLR,,0.00,WeatherDisplay:10.37,2013-02-19 19:29:00,
2013-02-19 13:34:00,15.8,-2.8,30.10,NW,315,5.8,6.1,43,0.00,CLR,,0.00,WeatherDisplay:10.37,2013-02-19 19:34:00,
2013-02-19 13:39:00,15.6,-3.4,30.11,SSW,202,9.2,9.2,42,0.00,CLR,,0.00,WeatherDisplay:10.37,2013-02-19 19:39:00,
2013-02-19 13:44:00,15.4,-3.6,30.11,SW,225,11.5,11.5,42,0.00,CLR,,0.00,WeatherDisplay:10.37,2013-02-19 19:44:00,
2013-02-19 13:49:00,15.1,-3.0,30.11,SSW,202,11.5,11.5,44,0.00,CLR,,0.00,WeatherDisplay:10.37,2013-02-19 19:49:00,
2013-02-19 13:54:00,15.3,-2.8,30.11,West,270,11.6,11.6,44,0.00,CLR,,0.00,WeatherDisplay:10.37,2013-02-19 19:54:00,
2013-02-19 13:59:00,15.3,-2.3,30.11,WSW,248,0.0,0.0,45,0.00,CLR,,0.00,WeatherDisplay:10.37,2013-02-19 19:59:00,
2013-02-19 14:04:00,15.4,-2.2,30.11,West,270,11.8,11.8,45,0.00,CLR,,0.00,WeatherDisplay:10.37,2013-02-19 20:04:00,
2013-02-19 14:09:00,14.9,-2.6,30.11,SW,225,15.0,15.0,45,0.00,CLR,,0.00,WeatherDisplay:10.37,2013-02-19 20:09:00,
2013-02-19 14:14:00,14.9,-2.2,30.11,WSW,248,9.2,9.2,46,0.00,CLR,,0.00,WeatherDisplay:10.37,2013-02-19 20:14:00,
2013-02-19 14:19:00,14.5,-2.5,30.12,SW,225,17.2,17.2,46,0.00,CLR,,0.00,WeatherDisplay:10.37,2013-02-19 20:19:00,
2013-02-19 14:24:00,14.4,-2.7,30.12,SW,225,8.1,8.1,46,0.00,CLR,,0.00,WeatherDisplay:10.37,2013-02-19 20:24:00,
2013-02-19 14:29:00,14.2,-2.8,30.12,WSW,248,10.5,10.5,46,0.00,CLR,,0.00,WeatherDisplay:10.37,2013-02-19 20:29:00,
2013-02-19 14:34:00,14.5,-2.5,30.12,WNW,292,6.9,6.9,46,0.00,CLR,,0.00,WeatherDisplay:10.37,2013-02-19 20:34:00,
2013-02-19 14:39:00,14.5,-2.5,30.13,SSW,202,16.3,16.3,46,0.00,CLR,,0.00,WeatherDisplay:10.37,2013-02-19 20:39:00,
2013-02-19 14:44:00,14.5,-3.0,30.13,West,270,8.1,14.5,45,0.00,CLR,,0.00,WeatherDisplay:10.37,2013-02-19 20:44:00,
2013-02-19 14:49:00,14.4,-3.1,30.13,SSW,202,12.7,12.7,45,0.00,CLR,,0.00,WeatherDisplay:10.37,2013-02-19 20:49:00,
2013-02-19 14:54:00,14.4,-3.1,30.14,West,270,6.9,6.9,45,0.00,CLR,,0.00,WeatherDisplay:10.37,2013-02-19 20:54:00,
2013-02-19 14:59:00,14.5,-3.0,30.14,West,270,20.7,21.2,45,0.00,CLR,,0.00,WeatherDisplay:10.37,2013-02-19 20:59:00,
2013-02-19 15:04:00,14.4,-2.7,30.14,WSW,248,8.5,8.5,46,0.00,CLR,,0.00,WeatherDisplay:10.37,2013-02-19 21:04:00,
2013-02-19 15:09:00,14.2,-3.3,30.14,SW,225,10.4,10.4,45,0.00,CLR,,0.00,WeatherDisplay:10.37,2013-02-19 21:09:00,
2013-02-19 15:14:00,14.2,-3.3,30.14,WNW,292,5.8,6.3,45,0.00,CLR,,0.00,WeatherDisplay:10.37,2013-02-19 21:14:00,
2013-02-19 15:19:00,13.6,-3.8,30.14,SW,225,10.5,10.5,45,0.00,CLR,,0.00,WeatherDisplay:10.37,2013-02-19 21:19:00,
2013-02-19 15:24:00,13.6,-3.3,30.15,WNW,292,10.4,10.4,46,0.00,CLR,,0.00,WeatherDisplay:10.37,2013-02-19 21:24:00,
2013-02-19 15:29:00,13.6,-3.3,30.15,WSW,248,18.8,18.8,46,0.00,CLR,,0.00,WeatherDisplay:10.37,2013-02-19 21:29:00,
2013-02-19 15:34:00,13.6,-3.3,30.16,WSW,248,9.2,9.2,46,0.00,CLR,,0.00,WeatherDisplay:10.37,2013-02-19 21:34:00,
2013-02-19 15:39:00,13.8,-3.2,30.16,West,270,10.4,10.4,46,0.00,CLR,,0.00,WeatherDisplay:10.37,2013-02-19 21:39:00,
2013-02-19 15:44:00,13.6,-2.9,30.16,WSW,248,6.9,7.2,47,0.00,CLR,,0.00,WeatherDisplay:10.37,2013-02-19 21:44:00,
2013-02-19 15:49:00,14.0,-3.0,30.16,WNW,292,15.0,15.0,46,0.00,CLR,,0.00,WeatherDisplay:10.37,2013-02-19 21:49:00,
2013-02-19 15:54:00,13.8,-3.2,30.17,WSW,248,6.9,6.9,46,0.00,CLR,,0.00,WeatherDisplay:10.37,2013-02-19 21:54:00,
2013-02-19 15:59:00,13.8,-3.2,30.17,SW,225,6.9,7.2,46,0.00,CLR,,0.00,WeatherDisplay:10.37,2013-02-19 21:59:00,
2013-02-19 16:04:00,14.2,-2.8,30.17,WNW,292,15.0,15.0,46,0.00,CLR,,0.00,WeatherDisplay:10.37,2013-02-19 22:04:00,
2013-02-19 16:09:00,13.8,-3.2,30.18,SW,225,16.1,0.0,46,0.00,CLR,,0.00,WeatherDisplay:10.37,2013-02-19 22:09:00,
2013-02-19 16:14:00,14.0,-2.6,30.18,WNW,292,15.4,15.4,47,0.00,CLR,,0.00,WeatherDisplay:10.37,2013-02-19 22:14:00,
2013-02-19 16:19:00,14.0,-2.6,30.18,WNW,292,8.1,8.1,47,0.00,CLR,,0.00,WeatherDisplay:10.37,2013-02-19 22:19:00,
2013-02-19 16:24:00,13.8,-2.7,30.19,WNW,292,4.6,4.6,47,0.00,CLR,,0.00,WeatherDisplay:10.37,2013-02-19 22:24:00,
2013-02-19 16:29:00,13.8,-2.7,30.19,WSW,248,6.9,6.9,47,0.00,CLR,,0.00,WeatherDisplay:10.37,2013-02-19 22:29:00,
2013-02-19 16:34:00,13.8,-2.3,30.19,South,180,7.8,7.8,48,0.00,CLR,,0.00,WeatherDisplay:10.37,2013-02-19 22:34:00,
2013-02-19 16:39:00,13.8,-2.3,30.19,West,270,5.8,5.8,48,0.00,CLR,,0.00,WeatherDisplay:10.37,2013-02-19 22:39:00,
2013-02-19 16:44:00,13.8,-2.3,30.19,SSW,202,13.8,14.1,48,0.00,CLR,,0.00,WeatherDisplay:10.37,2013-02-19 22:44:00,
2013-02-19 16:49:00,14.0,-1.7,30.19,SSW,202,9.2,9.2,49,0.00,CLR,,0.00,WeatherDisplay:10.37,2013-02-19 22:49:00,
2013-02-19 16:54:00,13.8,-1.8,30.20,NW,315,15.0,15.0,49,0.00,CLR,,0.00,WeatherDisplay:10.37,2013-02-19 22:54:00,
2013-02-19 16:59:00,13.6,-1.6,30.20,WSW,248,0.0,0.0,50,0.00,CLR,,0.00,WeatherDisplay:10.37,2013-02-19 22:59:00,
2013-02-19 17:04:00,13.6,-2.0,30.20,WSW,248,20.7,20.7,49,0.00,CLR,,0.00,WeatherDisplay:10.37,2013-02-19 23:04:00,
2013-02-19 17:09:00,13.6,-2.0,30.20,West,270,0.0,0.0,49,0.00,CLR,,0.00,WeatherDisplay:10.37,2013-02-19 23:09:00,
2013-02-19 17:14:00,14.0,-1.3,30.20,WSW,248,12.7,12.7,50,0.00,CLR,,0.00,WeatherDisplay:10.37,2013-02-19 23:14:00,
2013-02-19 17:19:00,13.6,-1.6,30.21,West,270,4.6,4.6,50,0.00,CLR,,0.00,WeatherDisplay:10.37,2013-02-19 23:19:00,
2013-02-19 17:24:00,13.6,-1.6,30.21,West,270,15.0,15.0,50,0.00,CLR,,0.00,WeatherDisplay:10.37,2013-02-19 23:24:00,
2013-02-19 17:29:00,13.5,-1.8,30.21,WSW,248,11.5,11.5,50,0.00,CLR,,0.00,WeatherDisplay:10.37,2013-02-19 23:29:00,
2013-02-19 17:34:00,13.6,-1.6,30.21,West,270,0.0,1.7,50,0.00,CLR,,0.00,WeatherDisplay:10.37,2013-02-19 23:34:00,
2013-02-19 17:39:00,13.5,-1.8,30.21,WNW,292,5.8,5.8,50,0.00,CLR,,0.00,WeatherDisplay:10.37,2013-02-19 23:39:00,
2013-02-19 17:44:00,13.5,-1.8,30.21,WSW,248,5.8,5.8,50,0.00,CLR,,0.00,WeatherDisplay:10.37,2013-02-19 23:44:00,
2013-02-19 17:49:00,13.5,-1.3,30.21,WSW,248,6.9,6.9,51,0.00,CLR,,0.00,WeatherDisplay:10.37,2013-02-19 23:49:00,
2013-02-19 17:54:00,13.5,-1.3,30.21,West,270,5.8,5.8,51,0.00,CLR,,0.00,WeatherDisplay:10.37,2013-02-19 23:54:00,
2013-02-19 17:59:00,13.5,-1.3,30.22,WSW,248,6.9,6.9,51,0.00,CLR,,0.00,WeatherDisplay:10.37,2013-02-19 23:59:00,
2013-02-19 18:04:00,13.5,-1.3,30.22,SW,225,0.0,0.0,51,0.00,CLR,,0.00,WeatherDisplay:10.37,2013-02-20 00:04:00,
2013-02-19 18:09:00,13.6,-1.2,30.22,WNW,292,11.5,11.5,51,0.00,CLR,,0.00,WeatherDisplay:10.37,2013-02-20 00:09:00,
2013-02-19 18:14:00,13.6,-1.2,30.22,WNW,292,17.7,17.7,51,0.00,CLR,,0.00,WeatherDisplay:10.37,2013-02-20 00:14:00,
2013-02-19 18:19:00,13.6,-1.6,30.23,WSW,248,9.2,9.2,50,0.00,CLR,,0.00,WeatherDisplay:10.37,2013-02-20 00:19:00,
2013-02-19 18:24:00,13.6,-1.6,30.22,WNW,292,6.9,6.9,50,0.00,CLR,,0.00,WeatherDisplay:10.37,2013-02-20 00:24:00,
2013-02-19 18:29:00,13.6,-2.0,30.23,West,270,5.8,6.1,49,0.00,CLR,,0.00,WeatherDisplay:10.37,2013-02-20 00:29:00,
2013-02-19 18:34:00,13.6,-2.0,30.23,WSW,248,9.2,9.2,49,0.00,CLR,,0.00,WeatherDisplay:10.37,2013-02-20 00:34:00,
2013-02-19 18:39:00,13.6,-2.0,30.23,West,270,10.4,10.4,49,0.00,CLR,,0.00,WeatherDisplay:10.37,2013-02-20 00:39:00,
2013-02-19 18:44:00,13.6,-2.0,30.23,West,270,6.9,6.9,49,0.00,CLR,,0.00,WeatherDisplay:10.37,2013-02-20 00:44:00,
2013-02-19 18:49:00,13.6,-2.0,30.23,WNW,292,6.9,6.9,49,0.00,CLR,,0.00,WeatherDisplay:10.37,2013-02-20 00:49:00,
2013-02-19 18:54:00,13.8,-1.8,30.23,WNW,292,0.0,0.0,49,0.00,CLR,,0.00,WeatherDisplay:10.37,2013-02-20 00:54:00,
2013-02-19 18:59:00,13.6,-1.6,30.24,WSW,248,6.9,6.9,50,0.00,CLR,,0.00,WeatherDisplay:10.37,2013-02-20 00:59:00,
2013-02-19 19:04:00,13.6,-1.6,30.24,WNW,292,5.8,5.8,50,0.00,CLR,,0.00,WeatherDisplay:10.37,2013-02-20 01:04:00,
2013-02-19 19:09:00,13.8,-1.4,30.25,West,270,0.0,0.0,50,0.00,CLR,,0.00,WeatherDisplay:10.37,2013-02-20 01:09:00,
2013-02-19 19:14:00,14.0,-1.7,30.25,SW,225,2.3,2.5,49,0.00,CLR,,0.00,WeatherDisplay:10.37,2013-02-20 01:14:00,
2013-02-19 19:19:00,13.8,-1.8,30.25,WSW,248,9.2,9.4,49,0.00,CLR,,0.00,WeatherDisplay:10.37,2013-02-20 01:19:00,
2013-02-19 19:24:00,13.8,-1.8,30.25,West,270,0.0,9.4,49,0.00,CLR,,0.00,WeatherDisplay:10.37,2013-02-20 01:24:00,
2013-02-19 19:29:00,14.2,-1.5,30.25,WNW,292,0.0,0.0,49,0.00,CLR,,0.00,WeatherDisplay:10.37,2013-02-20 01:29:00,
2013-02-19 19:34:00,14.2,-1.5,30.25,West,270,4.6,4.6,49,0.00,CLR,,0.00,WeatherDisplay:10.37,2013-02-20 01:34:00,
2013-02-19 19:39:00,14.2,-1.5,30.26,WNW,292,0.0,0.0,49,0.00,CLR,,0.00,WeatherDisplay:10.37,2013-02-20 01:39:00,
2013-02-19 19:44:00,14.2,-1.1,30.26,West,270,0.0,0.0,50,0.00,CLR,,0.00,WeatherDisplay:10.37,2013-02-20 01:44:00,
2013-02-19 19:49:00,14.2,-1.1,30.26,West,270,0.0,0.0,50,0.00,CLR,,0.00,WeatherDisplay:10.37,2013-02-20 01:49:00,
2013-02-19 19:54:00,14.2,-0.7,30.26,West,270,0.0,0.0,51,0.00,CLR,,0.00,WeatherDisplay:10.37,2013-02-20 01:54:00,
2013-02-19 19:59:00,13.6,-1.2,30.27,WNW,292,4.6,4.6,51,0.00,CLR,,0.00,WeatherDisplay:10.37,2013-02-20 01:59:00,
2013-02-19 20:04:00,13.6,-1.2,30.26,West,270,4.6,0.0,51,0.00,CLR,,0.00,WeatherDisplay:10.37,2013-02-20 02:04:00,
2013-02-19 20:09:00,13.8,-1.0,30.26,WSW,248,0.0,0.0,51,0.00,CLR,,0.00,WeatherDisplay:10.37,2013-02-20 02:09:00,
2013-02-19 20:14:00,13.6,-1.2,30.27,WNW,292,10.4,10.4,51,0.00,CLR,,0.00,WeatherDisplay:10.37,2013-02-20 02:14:00,
2013-02-19 20:19:00,13.8,-1.4,30.26,WNW,292,4.6,0.0,50,0.00,CLR,,0.00,WeatherDisplay:10.37,2013-02-20 02:19:00,
2013-02-19 20:24:00,13.6,-1.6,30.27,WNW,292,6.9,6.9,50,0.00,CLR,,0.00,WeatherDisplay:10.37,2013-02-20 02:24:00,
2013-02-19 20:29:00,13.6,-2.0,30.27,West,270,3.5,3.5,49,0.00,CLR,,0.00,WeatherDisplay:10.37,2013-02-20 02:29:00,
2013-02-19 20:34:00,13.8,-1.8,30.27,WSW,248,4.6,4.6,49,0.00,CLR,,0.00,WeatherDisplay:10.37,2013-02-20 02:34:00,
2013-02-19 20:39:00,13.6,-2.0,30.27,NW,315,0.0,0.0,49,0.00,CLR,,0.00,WeatherDisplay:10.37,2013-02-20 02:39:00,
2013-02-19 20:44:00,13.6,-2.4,30.27,West,270,6.9,6.9,48,0.00,CLR,,0.00,WeatherDisplay:10.37,2013-02-20 02:44:00,
2013-02-19 20:49:00,13.6,-2.4,30.27,WNW,292,8.1,8.1,48,0.00,CLR,,0.00,WeatherDisplay:10.37,2013-02-20 02:49:00,
2013-02-19 20:54:00,13.6,-2.4,30.28,SSW,202,0.0,0.0,48,0.00,CLR,,0.00,WeatherDisplay:10.37,2013-02-20 02:54:00,
2013-02-19 20:59:00,13.6,-2.4,30.28,NW,315,0.0,0.0,48,0.00,CLR,,0.00,WeatherDisplay:10.37,2013-02-20 02:59:00,
2013-02-19 21:04:00,13.6,-2.4,30.28,NW,315,4.7,4.7,48,0.00,CLR,,0.00,WeatherDisplay:10.37,2013-02-20 03:04:00,
2013-02-19 21:09:00,13.5,-3.1,30.28,WNW,292,6.3,6.3,47,0.00,CLR,,0.00,WeatherDisplay:10.37,2013-02-20 03:09:00,
2013-02-19 21:14:00,13.5,-3.1,30.28,West,270,5.8,5.8,47,0.00,CLR,,0.00,WeatherDisplay:10.37,2013-02-20 03:14:00,
2013-02-19 21:19:00,13.3,-3.7,30.28,WSW,248,7.4,7.4,46,0.00,CLR,,0.00,WeatherDisplay:10.37,2013-02-20 03:19:00,
2013-02-19 21:24:00,13.1,-4.3,30.28,West,270,0.0,0.0,45,0.00,CLR,,0.00,WeatherDisplay:10.37,2013-02-20 03:24:00,
2013-02-19 21:29:00,13.1,-4.3,30.28,WNW,292,8.1,8.1,45,0.00,CLR,,0.00,WeatherDisplay:10.37,2013-02-20 03:29:00,
2013-02-19 21:34:00,13.1,-4.3,30.29,WNW,292,0.0,0.0,45,0.00,CLR,,0.00,WeatherDisplay:10.37,2013-02-20 03:34:00,
2013-02-19 21:39:00,12.9,-4.5,30.29,West,270,1.1,1.1,45,0.00,CLR,,0.00,WeatherDisplay:10.37,2013-02-20 03:39:00,
2013-02-19 21:44:00,12.9,-4.5,30.29,WNW,292,4.6,4.6,45,0.00,CLR,,0.00,WeatherDisplay:10.37,2013-02-20 03:44:00,
2013-02-19 21:49:00,12.7,-4.2,30.29,WNW,292,0.0,0.0,46,0.00,CLR,,0.00,WeatherDisplay:10.37,2013-02-20 03:49:00,
2013-02-19 21:54:00,12.7,-4.2,30.29,NW,315,5.6,0.0,46,0.00,CLR,,0.00,WeatherDisplay:10.37,2013-02-20 03:54:00,
2013-02-19 21:59:00,12.6,-4.3,30.30,West,270,3.5,0.0,46,0.00,CLR,,0.00,WeatherDisplay:10.37,2013-02-20 03:59:00,
2013-02-19 22:04:00,12.6,-4.3,30.30,NW,315,0.0,0.0,46,0.00,CLR,,0.00,WeatherDisplay:10.37,2013-02-20 04:04:00,
2013-02-19 22:09:00,12.6,-4.3,30.30,WNW,292,0.0,0.0,46,0.00,CLR,,0.00,WeatherDisplay:10.37,2013-02-20 04:09:00,
2013-02-19 22:14:00,12.4,-5.0,30.30,West,270,6.9,0.0,45,0.00,CLR,,0.00,WeatherDisplay:10.37,2013-02-20 04:14:00,
2013-02-19 22:19:00,12.4,-5.0,30.30,West,270,0.0,0.0,45,0.00,CLR,,0.00,WeatherDisplay:10.37,2013-02-20 04:19:00,
2013-02-19 22:24:00,12.4,-5.0,30.30,WNW,292,0.0,0.0,45,0.00,CLR,,0.00,WeatherDisplay:10.37,2013-02-20 04:24:00,
2013-02-19 22:29:00,12.4,-5.0,30.30,WNW,292,0.0,0.0,45,0.00,CLR,,0.00,WeatherDisplay:10.37,2013-02-20 04:29:00,
2013-02-19 22:34:00,12.2,-5.1,30.30,West,270,0.0,0.0,45,0.00,CLR,,0.00,WeatherDisplay:10.37,2013-02-20 04:34:00,
2013-02-19 22:39:00,12.2,-5.1,30.30,West,270,0.0,0.0,45,0.00,CLR,,0.00,WeatherDisplay:10.37,2013-02-20 04:39:00,
2013-02-19 22:44:00,12.0,-5.3,30.30,West,270,0.0,0.0,45,0.00,CLR,,0.00,WeatherDisplay:10.37,2013-02-20 04:44:00,
2013-02-19 22:49:00,11.8,-5.5,30.31,West,270,0.0,0.0,45,0.00,CLR,,0.00,WeatherDisplay:10.37,2013-02-20 04:49:00,
2013-02-19 22:54:00,11.8,-5.5,30.31,WNW,292,0.0,0.0,45,0.00,CLR,,0.00,WeatherDisplay:10.37,2013-02-20 04:54:00,
2013-02-19 22:59:00,11.3,-6.0,30.31,NW,315,0.0,0.0,45,0.00,CLR,,0.00,WeatherDisplay:10.37,2013-02-20 04:59:00,
2013-02-19 23:00:00,11.3,-6.0,30.30,WNW,298,0.0,0.0,45,0.00,CLR,,0.00,WeatherDisplay:10.37,2013-02-20 05:00:00,
2013-02-19 23:01:00,11.3,-6.0,30.31,NW,315,0.0,0.0,45,0.00,CLR,,0.00,WeatherDisplay:10.37,2013-02-20 05:01:00,
2013-02-19 23:06:00,11.3,-6.0,30.31,WNW,292,0.0,0.0,45,0.00,CLR,,0.00,WeatherDisplay:10.37,2013-02-20 05:06:00,
2013-02-19 23:11:00,11.3,-6.0,30.31,West,270,0.0,0.0,45,0.00,CLR,,0.00,WeatherDisplay:10.37,2013-02-20 05:11:00,
2013-02-19 23:16:00,11.3,-6.0,30.30,West,270,0.0,0.0,45,0.00,CLR,,0.00,WeatherDisplay:10.37,2013-02-20 05:16:00,
2013-02-19 23:21:00,11.1,-6.1,30.30,WNW,292,0.0,0.0,45,0.00,CLR,,0.00,WeatherDisplay:10.37,2013-02-20 05:21:00,
2013-02-19 23:26:00,11.1,-6.1,30.30,WNW,292,0.0,0.0,45,0.00,CLR,,0.00,WeatherDisplay:10.37,2013-02-20 05:26:00,
2013-02-19 23:31:00,11.1,-6.1,30.30,WNW,292,0.0,0.0,45,0.00,CLR,,0.00,WeatherDisplay:10.37,2013-02-20 05:31:00,
2013-02-19 23:36:00,11.1,-6.1,30.30,West,270,0.0,0.0,45,0.00,CLR,,0.00,WeatherDisplay:10.37,2013-02-20 05:36:00,
2013-02-19 23:41:00,11.1,-6.1,30.30,WNW,292,0.0,0.0,45,0.00,CLR,,0.00,WeatherDisplay:10.37,2013-02-20 05:41:00,
2013-02-19 23:46:00,11.1,-6.1,30.30,WNW,292,0.0,0.0,45,0.00,CLR,,0.00,WeatherDisplay:10.37,2013-02-20 05:46:00,
2013-02-19 23:51:00,10.6,-6.6,30.30,WNW,292,0.0,0.0,45,0.00,CLR,,0.00,WeatherDisplay:10.37,2013-02-20 05:51:00,
2013-02-19 23:56:00,10.6,-6.6,30.30,WNW,292,0.0,0.0,45,0.00,CLR,,0.00,WeatherDisplay:10.37,2013-02-20 05:56:00,